Snowfall_Accumulation
0.0 0.0 0.0 0.0 0.0 0.0 0.0 0.0 0.0 0.0 0.0 0.0 0.0 0.0 0.0 0.0 0.0 0.0 0.0 0.0 0.1 0.1 0.0 0.0 0.0 0.0 0.0 0.0 0.0 0.0 0.0 0.1 0.7 0.0 0.0 0.0 0.0 0.0 0.0 0.0 0.0 0.0 0.0
0.0 0.0 0.0 0.0 0.0 0.0 0.0 0.0 0.0 0.0 0.0 0.0 0.0 0.0 0.0 0.0 0.0 0.0 0.0 0.2 0.2 0.0 0.0 0.0 0.0 0.1 0.2 0.0 0.0 0.0 0.0 0.0 0.3 0.3 0.0 0.0 0.0 0.0 0.0 0.0 0.0 0.0 0.0
0.0 0.0 0.0 0.0 0.0 0.0 0.0 0.0 0.0 0.0 0.0 0.0 0.0 0.0 0.0 0.0 0.0 0.0 0.0 0.0 0.0 0.0 0.0 0.0 0.0 0.2 0.3 0.4 0.0 0.0 0.1 0.0 0.1 0.4 0.2 0.0 0.0 0.0 0.0 0.0 0.0 0.0 0.0
0.0 0.0 0.0 0.0 0.0 0.0 0.0 0.0 0.0 0.0 0.0 0.0 0.0 0.0 0.0 0.0 0.0 0.0 0.0 0.0 0.0 0.0 0.0 0.0 0.0 0.0 0.2 0.2 0.2 0.2 0.2 0.7 0.4 0.4 0.3 0.0 0.0 0.0 0.0 0.0 0.1 0.0 0.0
0.0 0.0 0.0 0.0 0.0 0.1 0.3 0.3 0.3 0.3 0.0 0.0 0.0 0.1 0.0 0.0 0.0 0.0 0.0 0.3 0.2 0.0 0.0 0.0 0.0 0.0 nan nan 0.6 0.5 0.5 1.0 1.6 1.8 0.4 0.2 0.1 0.0 0.0 0.0 0.3 0.2 0.1
0.0 0.0 0.0 0.6 0.8 1.0 0.8 0.6 0.4 0.3 0.3 0.3 0.3 0.3 0.3 0.0 nan nan 0.0 0.3 0.4 0.0 0.0 0.0 0.0 0.0 0.0 nan nan nan nan 2.0 9.1 7.0 0.5 0.4 0.1 0.0 0.0 0.1 0.2 0.3 0.9
1.4 2.3 1.9 1.5 1.5 1.1 0.8 0.7 0.5 0.5 0.4 0.4 0.4 0.3 0.4 0.3 nan nan nan 0.5 0.5 0.0 0.0 0.0 0.0 0.0 0.0 0.0 nan nan nan nan nan 0.2 0.8 0.2 0.1 0.0 0.0 0.1 0.2 0.4 0.5
1.9 3.0 2.2 1.3 2.5 1.3 1.1 1.1 0.6 0.5 0.6 0.5 0.5 0.5 0.3 0.3 nan nan nan 0.3 0.3 0.0 0.0 0.0 0.0 0.0 0.0 0.1 0.2 1.3 0.7 0.5 0.2 0.1 0.1 0.1 0.1 0.0 0.1 0.3 1.0 1.4 1.1
0.7 1.2 1.3 2.0 2.9 1.5 3.5 1.6 1.1 1.8 1.2 2.1 1.9 3.2 2.5 2.1 nan nan 0.7 1.3 1.0 0.7 0.0 0.0 0.1 0.1 nan nan 1.6 3.9 2.4 1.2 nan nan nan nan nan nan nan 4.9 14.3 15.7 8.6
0.7 0.7 0.9 1.9 4.3 3.4 1.9 2.8 3.2 3.1 2.8 3.4 3.2 2.6 0.8 4.0 nan nan nan 5.0 5.5 3.2 1.5 0.1 0.1 0.1 nan nan 1.7 3.6 5.1 1.9 1.2 3.5 1.1 0.6 nan nan nan 0.3 4.5 15.2 7.6
1.4 1.4 1.7 1.9 4.5 2.8 3.3 2.7 3.9 4.3 2.2 4.0 3.7 2.8 3.3 1.6 1.7 nan nan 2.8 5.1 6.4 5.2 3.3 1.6 nan nan nan nan 3.3 3.8 2.5 5.9 4.9 4.1 3.8 2.2 1.5 1.7 1.0 0.5 1.9 5.9
2.2 2.5 3.1 5.0 4.6 4.6 8.3 5.1 7.0 6.1 6.0 5.4 5.7 4.7 3.8 1.6 nan nan nan nan nan 10.6 5.7 2.3 2.0 nan nan nan 1.8 nan nan 1.6 10.9 12.3 10.0 7.3 4.3 3.5 1.7 1.4 0.3 0.6 0.7
5.2 7.3 7.2 6.4 6.5 6.5 9.5 6.4 8.7 7.1 8.4 4.8 6.2 5.7 3.7 2.9 3.0 nan nan nan nan 5.6 3.9 2.6 nan nan nan nan nan nan 0.6 6.4 9.3 11.4 7.6 3.9 2.0 1.5 0.8 1.6 0.8 1.3 0.9
10.0 5.4 4.3 5.5 4.1 5.6 7.5 8.7 12.3 9.7 8.0 8.9 9.9 8.9 5.4 5.2 3.6 3.8 8.0 5.9 2.8 7.5 nan 5.1 nan 3.3 nan nan 2.7 3.1 4.7 5.2 5.7 6.5 4.9 2.1 2.0 3.1 4.7 3.6 5.3 4.5 8.3
7.1 4.0 5.6 7.8 8.6 5.1 4.5 7.7 6.6 4.5 9.5 16.3 19.2 13.9 15.1 14.3 10.3 5.0 11.8 14.2 14.0 12.8 8.5 15.9 13.2 7.9 7.2 5.8 7.2 6.5 5.3 6.1 6.8 6.7 6.9 6.6 6.0 6.1 5.5 4.4 5.1 7.2 8.8
4.2 6.0 5.8 5.8 5.0 4.4 4.4 4.2 nan nan nan nan nan 11.8 15.3 nan nan nan nan nan nan nan 22.0 25.6 12.8 9.4 6.7 6.6 8.3 8.0 7.1 5.9 6.5 7.5 8.1 7.4 8.0 6.7 7.2 8.2 7.6 8.1 8.9
7.2 4.8 6.2 4.8 5.1 5.7 5.8 6.9 8.0 4.5 nan nan nan nan nan nan nan nan nan nan nan nan 33.3 18.2 14.5 9.8 9.3 7.2 9.1 8.4 8.5 6.7 4.9 8.6 8.5 9.4 10.1 10.4 10.6 10.2 8.8 7.7 11.1
6.8 1.9 7.4 7.2 6.9 7.2 7.7 7.9 8.2 9.8 11.3 8.9 nan nan nan nan nan nan nan nan 27.7 nan 25.3 26.4 22.4 17.5 13.2 11.7 9.8 10.0 10.1 9.8 9.5 10.7 11.0 14.9 16.0 17.3 15.7 15.3 11.9 13.2 12.5
7.4 6.3 6.9 7.0 6.7 7.0 7.8 6.9 7.8 7.8 8.3 10.6 10.1 10.0 5.4 nan nan nan nan 19.1 27.7 24.0 23.5 24.7 20.7 19.5 16.1 17.1 16.2 18.2 15.4 16.0 15.5 20.3 20.6 22.1 19.6 19.8 19.2 13.4 10.2 6.2 7.1
7.9 3.2 6.1 10.6 8.9 7.9 5.8 7.8 7.2 7.5 8.5 10.1 10.6 9.1 16.1 16.3 23.6 24.6 19.9 27.6 27.9 24.9 21.9 24.2 25.0 27.9 28.2 25.7 25.0 23.0 23.3 24.1 21.8 23.2 23.3 21.6 19.5 19.9 13.2 18.2 15.4 12.6 14.4
13.7 11.8 2.4 10.3 12.7 12.9 12.9 10.4 8.0 11.3 10.1 12.3 9.5 9.1 nan 16.3 17.0 19.4 23.0 21.3 25.8 27.9 22.4 24.9 27.0 34.5 35.0 38.1 31.8 30.7 28.5 18.3 22.5 24.9 26.8 26.3 24.8 29.5 17.7 10.9 15.5 16.8 16.0
15.6 16.2 16.1 17.0 11.7 12.1 14.0 9.5 10.6 10.9 10.3 9.0 7.1 7.5 nan 9.9 12.9 13.5 15.7 21.6 26.1 26.1 29.9 35.3 35.0 38.3 34.2 31.5 28.4 26.1 22.0 26.3 28.5 26.6 21.8 23.2 27.3 23.2 21.5 14.3 14.8 12.7 16.6
13.1 11.5 12.3 12.1 11.7 6.0 13.1 15.4 13.3 12.7 11.4 12.6 11.0 10.8 13.4 17.7 14.9 14.2 22.2 25.4 20.3 19.4 22.5 23.6 22.1 22.2 20.7 24.0 21.2 20.3 21.9 25.5 26.5 34.0 23.9 25.4 24.7 27.9 23.8 20.5 17.4 18.8 17.3
11.7 11.9 11.5 15.5 13.5 11.0 13.3 14.5 12.4 5.8 12.8 14.0 24.5 18.9 10.5 14.4 22.4 16.8 18.2 21.8 17.7 30.4 21.5 22.9 18.7 18.4 20.5 31.0 38.9 38.3 41.2 43.0 41.4 38.3 34.1 23.6 24.1 19.6 20.0 21.9 17.0 14.9 12.9
14.8 12.2 12.3 11.3 18.3 14.3 13.3 16.4 11.1 16.1 19.8 15.3 19.0 13.5 14.7 14.2 16.1 22.9 21.2 16.9 19.2 17.6 15.2 15.2 15.7 16.2 16.6 17.4 24.8 31.8 31.7 4.3 20.8 4.7 29.9 21.1 26.1 27.1 25.7 20.6 18.9 15.7 12.8
11.7 12.4 13.1 13.7 13.2 14.7 15.5 15.2 15.9 12.2 16.2 17.8 16.8 17.1 14.8 14.9 15.0 18.2 16.8 16.9 13.7 14.4 14.9 16.2 15.9 13.7 13.0 15.2 16.4 6.8 4.0 3.5 24.7 4.0 24.3 20.2 24.1 23.4 22.9 22.9 21.0 18.7 14.7
Water_Equivalent
0.00 0.00 0.00 0.00 0.00 0.00 0.00 0.00 0.00 0.00 0.00 0.00 0.00 0.00 0.00 0.00 0.00 0.00 0.00 0.00 0.02 0.02 0.00 0.00 0.00 0.00 0.00 0.00 0.00 0.00 0.00 0.01 0.13 0.01 0.00 0.00 0.00 0.00 0.00 0.00 0.00 0.00 0.00
0.00 0.00 0.00 0.00 0.00 0.00 0.00 0.00 0.00 0.00 0.00 0.00 0.00 0.00 0.00 0.00 0.00 0.00 0.00 0.03 0.03 0.00 0.00 0.00 0.00 0.01 0.03 0.00 0.00 0.00 0.00 0.00 0.05 0.04 0.00 0.00 0.00 0.00 0.00 0.00 0.00 0.00 0.00
0.00 0.00 0.00 0.00 0.00 0.00 0.00 0.00 0.00 0.00 0.00 0.00 0.00 0.00 0.00 0.00 0.00 0.00 0.00 0.00 0.00 0.00 0.00 0.00 0.00 0.03 0.05 0.06 0.00 0.00 0.02 0.00 0.02 0.07 0.04 0.00 0.00 0.00 0.00 0.00 0.00 0.00 0.00
0.00 0.00 0.00 0.00 0.00 0.00 0.00 0.00 0.00 0.00 0.00 0.00 0.00 0.00 0.00 0.00 0.00 0.00 0.00 0.00 0.00 0.00 0.00 0.00 0.00 0.00 0.04 0.04 0.04 0.04 0.04 0.11 0.08 0.05 0.04 0.01 0.00 0.00 0.00 0.00 0.01 0.00 0.00
0.00 0.00 0.00 0.00 0.00 0.01 0.04 0.05 0.04 0.04 0.00 0.00 0.00 0.02 0.00 0.00 0.00 0.00 0.00 0.04 0.03 0.00 0.00 0.00 0.00 0.00 nan nan 0.10 0.08 0.08 0.16 0.25 0.27 0.05 0.02 0.01 0.00 0.00 0.00 0.04 0.03 0.03
0.00 0.00 0.00 0.08 0.11 0.13 0.11 0.08 0.05 0.05 0.04 0.05 0.05 0.05 0.04 0.00 nan nan 0.00 0.04 0.05 0.00 0.00 0.00 0.00 0.00 0.00 nan nan nan nan 0.29 0.93 0.85 0.07 0.04 0.01 0.01 0.00 0.01 0.04 0.07 0.15
0.17 0.27 0.23 0.18 0.17 0.13 0.10 0.08 0.06 0.06 0.05 0.05 0.05 0.05 0.05 0.04 nan nan nan 0.07 0.07 0.00 0.00 0.00 0.00 0.00 0.00 0.01 nan nan nan nan nan 0.03 0.11 0.04 0.01 0.00 0.00 0.02 0.03 0.12 0.13
0.21 0.31 0.23 0.14 0.26 0.13 0.11 0.11 0.07 0.05 0.07 0.06 0.07 0.06 0.04 0.03 nan nan nan 0.04 0.04 0.00 0.00 0.00 0.00 0.00 0.00 0.01 0.03 0.17 0.10 0.08 0.04 0.02 0.02 0.02 0.01 0.01 0.02 0.05 0.14 0.23 0.21
0.08 0.12 0.13 0.20 0.29 0.15 0.35 0.15 0.11 0.19 0.13 0.23 0.22 0.37 0.29 0.26 nan nan 0.09 0.17 0.12 0.09 0.00 0.00 0.01 0.01 nan nan 0.18 0.40 0.25 0.14 nan nan nan nan nan nan nan 0.73 1.89 2.07 1.14
0.07 0.07 0.09 0.18 0.42 0.33 0.18 0.28 0.32 0.31 0.28 0.37 0.32 0.29 0.10 0.44 nan nan nan 0.66 0.64 0.39 0.18 0.01 0.02 0.01 nan nan 0.20 0.36 0.51 0.19 0.13 0.38 0.14 0.09 nan nan nan 0.06 0.68 1.88 1.06
0.14 0.14 0.17 0.19 0.44 0.27 0.32 0.27 0.39 0.43 0.22 0.40 0.37 0.28 0.33 0.18 0.19 nan nan 0.35 0.62 0.76 0.63 0.40 0.20 nan nan nan nan 0.34 0.38 0.26 0.61 0.53 0.48 0.47 0.30 0.23 0.27 0.18 0.09 0.35 0.85
0.22 0.24 0.30 0.49 0.45 0.46 0.84 0.50 0.69 0.61 0.60 0.53 0.57 0.47 0.42 0.17 nan nan nan nan nan 1.19 0.60 0.27 0.23 nan nan nan 0.29 nan nan 0.27 1.19 1.36 1.14 0.84 0.52 0.43 0.25 0.21 0.05 0.11 0.13
0.52 0.73 0.72 0.64 0.64 0.65 0.96 0.63 0.87 0.71 0.85 0.48 0.63 0.57 0.37 0.32 0.34 nan nan nan nan 0.64 0.47 0.29 nan nan nan nan nan nan 0.19 0.77 1.04 1.22 0.81 0.45 0.24 0.19 0.10 0.22 0.12 0.19 0.13
1.02 0.53 0.41 0.53 0.43 0.53 0.75 0.88 1.26 0.98 0.79 0.88 0.99 0.90 0.54 0.51 0.38 0.41 0.83 0.67 0.46 0.82 nan 0.57 nan 0.36 nan nan 0.37 0.38 0.55 0.60 0.63 0.69 0.57 0.25 0.24 0.38 0.58 0.45 0.66 0.57 1.06
0.69 0.37 0.53 0.76 0.85 0.48 0.43 0.76 0.65 0.43 0.94 1.56 1.89 1.33 1.41 1.37 1.03 0.53 1.22 1.48 1.44 1.31 1.10 1.62 1.31 0.79 0.73 0.60 0.76 0.68 0.56 0.67 0.73 0.75 0.78 0.75 0.70 0.74 0.67 0.53 0.63 0.88 1.06
0.38 0.57 0.56 0.56 0.49 0.43 0.43 0.40 nan nan nan nan nan 1.19 1.58 nan nan nan nan nan nan nan 2.51 2.62 1.24 0.91 0.63 0.63 0.79 0.76 0.68 0.63 0.67 0.79 0.87 0.83 0.89 0.75 0.82 0.96 0.92 0.98 1.03
0.70 0.45 0.59 0.49 0.48 0.54 0.56 0.66 0.77 0.44 nan nan nan nan nan nan nan nan nan nan nan nan 3.61 1.85 1.43 0.94 0.87 0.64 0.82 0.74 0.74 0.62 0.43 0.81 0.82 0.96 1.05 1.13 1.20 1.15 0.99 0.88 1.27
0.65 0.61 0.70 0.67 0.64 0.67 0.73 0.76 0.79 0.95 1.10 0.88 nan nan nan nan nan nan nan nan 3.02 nan 2.71 2.72 2.24 1.72 1.22 1.05 0.86 0.85 0.86 0.84 0.83 0.96 1.01 1.49 1.66 1.86 1.70 1.69 1.34 1.55 1.46
0.71 0.59 0.66 0.67 0.65 0.68 0.76 0.65 0.74 0.73 0.78 1.03 0.99 1.01 0.87 nan nan nan nan 2.05 2.93 2.48 2.42 2.53 2.04 1.86 1.47 1.60 1.50 1.73 1.40 1.46 1.41 1.95 2.00 2.22 2.04 2.12 2.10 1.49 1.13 0.89 0.97
0.75 0.76 0.74 1.01 0.81 0.72 0.52 0.71 0.64 0.67 0.76 0.95 1.01 0.89 1.63 1.82 2.49 2.61 2.11 3.00 2.99 2.59 2.24 2.46 2.50 2.81 2.85 2.57 2.49 2.27 2.27 2.36 2.10 2.25 2.25 2.14 2.01 2.16 1.36 2.07 1.76 1.37 1.68
1.26 1.05 0.79 0.90 1.16 1.20 1.21 0.92 0.70 1.04 0.93 1.18 0.90 0.88 nan 1.62 1.72 2.00 2.40 2.18 2.66 2.91 2.28 2.56 2.71 3.58 3.71 4.10 3.31 3.16 2.89 1.72 2.22 2.47 2.69 2.65 2.54 3.19 1.90 1.11 1.76 1.96 1.87
1.38 1.46 1.46 1.55 0.99 1.03 1.25 0.80 0.91 0.94 0.90 0.77 0.60 0.69 nan 0.92 1.22 1.30 1.53 2.18 2.70 2.66 3.07 3.67 3.60 4.01 3.52 3.21 2.85 2.62 2.14 2.64 2.93 2.68 2.07 2.22 2.71 2.34 2.31 1.52 1.62 1.39 1.95
1.10 0.92 1.02 1.00 0.96 1.33 1.13 1.39 1.17 1.13 1.00 1.16 1.01 0.97 1.20 1.71 1.41 1.33 2.21 2.52 1.92 1.79 2.13 2.27 2.11 2.11 1.97 2.34 2.05 1.96 2.10 2.48 2.58 3.55 2.25 2.42 2.33 2.78 2.48 2.17 1.90 2.10 2.01
0.96 1.00 0.97 1.41 1.20 0.92 1.18 1.30 1.06 1.41 1.15 1.28 2.34 1.82 0.95 1.33 2.13 1.48 1.62 2.01 1.61 3.04 2.04 2.21 1.74 1.71 1.97 3.21 4.21 4.13 4.51 4.75 4.45 4.02 3.52 2.20 2.21 1.97 1.89 2.29 1.78 1.70 1.37
1.28 1.03 1.06 0.97 1.71 1.27 1.17 1.50 0.96 1.48 1.84 1.39 1.82 1.21 1.27 1.19 1.39 2.18 2.00 1.57 1.82 1.68 1.41 1.41 1.48 1.55 1.59 1.70 2.52 3.36 3.59 1.41 2.56 1.54 3.02 1.96 2.44 2.52 2.38 2.00 1.87 1.53 1.31
1.00 1.07 1.13 1.19 1.15 1.31 1.41 1.38 1.46 1.09 1.51 1.66 1.53 1.56 1.31 1.32 1.35 1.73 1.58 1.59 1.25 1.33 1.40 1.56 1.54 1.32 1.24 1.45 1.57 1.63 1.32 1.15 2.65 1.31 2.38 1.85 2.20 2.01 1.96 1.99 1.82 1.73 1.38
SL_Ratio
nan nan nan nan nan nan nan nan nan nan nan nan nan nan nan nan nan nan nan nan 7.4 7.3 nan nan nan nan nan nan nan nan 5.0 5.3 5.7 5.3 nan nan nan nan nan nan nan nan nan
nan nan nan nan nan nan nan nan nan nan nan nan nan nan nan nan nan nan 7.0 7.2 7.3 8.0 nan nan nan 5.5 6.8 nan nan 5.0 5.6 7.5 6.0 6.9 nan nan nan nan nan nan nan nan nan
nan nan nan nan nan nan nan nan nan nan nan nan nan nan nan 5.0 nan nan nan nan nan nan nan nan nan 7.1 6.7 6.1 nan 5.0 5.7 5.8 5.9 6.6 6.4 nan nan nan nan nan nan nan nan
nan nan nan nan nan nan nan nan nan nan nan nan nan nan nan nan nan nan nan nan nan nan nan nan nan nan 6.4 6.4 6.3 6.2 6.1 5.8 5.7 6.7 6.8 6.4 nan nan nan 4.4 4.6 nan nan
nan nan nan nan nan 6.4 6.7 6.9 7.1 7.3 nan nan nan 7.4 nan nan 5.0 7.5 5.0 7.2 7.3 5.0 5.0 nan nan nan nan nan 6.3 6.4 6.5 6.4 6.2 6.7 7.5 8.2 8.1 8.2 7.7 6.1 6.1 5.2 4.9
6.0 6.9 6.9 7.5 7.7 7.8 7.5 7.6 7.7 7.7 7.6 7.4 7.6 7.7 7.6 nan nan nan 6.3 7.4 7.5 5.8 6.4 nan nan 5.0 6.7 nan nan nan nan 7.0 9.8 8.2 6.8 10.1 8.4 7.6 7.0 5.2 4.4 4.7 5.8
8.2 8.5 8.4 8.3 8.7 8.6 8.2 8.3 8.2 8.0 7.7 7.9 7.8 7.7 7.8 7.6 nan nan nan 7.1 7.4 6.4 6.0 5.0 nan nan 3.3 5.3 nan nan nan nan nan 5.9 7.4 6.3 7.6 6.3 5.4 5.1 4.7 3.7 3.9
9.0 9.7 9.7 9.1 9.9 9.9 9.9 9.7 8.9 8.4 8.6 8.5 8.1 7.9 7.8 7.7 nan nan nan 7.4 7.6 5.0 nan nan 7.0 8.0 7.3 6.9 6.5 7.8 7.1 6.5 6.0 5.9 5.5 5.6 5.4 5.2 5.5 6.2 6.8 5.9 5.3
9.1 9.7 9.8 9.9 9.9 10.1 10.1 10.5 10.6 9.8 9.3 9.0 8.5 8.7 8.7 8.4 nan nan 7.5 7.8 8.1 8.0 7.1 6.8 7.2 7.5 nan nan 9.2 9.8 9.6 8.3 nan nan nan nan nan nan nan 6.7 7.6 7.6 7.6
10.0 10.1 10.2 10.1 10.0 10.3 10.5 10.3 10.0 10.0 10.0 9.1 9.9 9.2 7.7 9.3 nan nan nan 7.6 8.6 8.1 8.2 7.6 3.2 7.5 nan nan 8.6 10.1 10.2 9.8 9.4 9.3 7.4 6.1 nan nan nan 5.3 6.6 8.1 7.2
10.0 10.3 10.3 10.4 10.1 10.3 10.1 10.1 10.0 10.1 10.3 10.1 10.0 10.0 9.9 8.6 8.6 nan nan 8.0 8.3 8.4 8.2 8.4 8.0 nan nan nan nan 9.8 9.9 9.7 9.7 9.3 8.6 8.1 7.1 6.6 6.0 5.8 5.6 5.4 7.0
10.1 10.3 10.4 10.2 10.2 10.2 9.9 10.2 10.0 10.0 10.0 10.1 10.0 10.0 9.1 9.7 nan nan nan nan nan 8.9 9.4 8.5 8.4 nan nan nan 6.3 nan nan 6.0 9.2 9.1 8.8 8.7 8.3 8.2 7.1 6.6 6.2 5.6 5.5
10.1 10.0 10.0 10.1 10.1 10.1 9.8 10.2 10.0 10.0 9.9 10.1 9.9 9.9 9.9 9.2 8.9 nan nan nan nan 8.8 8.3 8.8 nan nan nan nan nan nan 3.0 8.3 8.9 9.3 9.5 8.7 8.4 7.7 7.3 7.2 6.9 7.0 7.0
9.9 10.2 10.5 10.4 9.7 10.5 10.1 9.9 9.7 10.0 10.1 10.1 9.9 9.9 10.0 10.1 9.6 9.2 9.6 8.8 6.1 9.2 nan 9.0 nan 9.3 nan nan 7.5 8.1 8.5 8.7 9.1 9.5 8.6 8.2 8.1 8.2 8.2 8.0 8.0 8.0 7.8
10.4 10.9 10.6 10.3 10.1 10.5 10.4 10.1 10.2 10.3 10.1 10.4 10.2 10.5 10.7 10.4 10.0 9.4 9.6 9.6 9.7 9.8 7.7 9.8 10.0 10.0 9.9 9.6 9.5 9.4 9.4 9.2 9.2 8.9 8.9 8.8 8.6 8.3 8.2 8.2 8.1 8.2 8.3
11.2 10.6 10.4 10.2 10.2 10.2 10.3 10.6 nan nan nan nan nan 9.9 9.7 nan nan nan nan nan nan nan 8.8 9.8 10.3 10.3 10.6 10.5 10.5 10.6 10.4 9.3 9.7 9.5 9.3 8.9 8.9 8.9 8.8 8.5 8.2 8.3 8.7
10.3 10.6 10.4 9.8 10.8 10.6 10.5 10.5 10.5 10.2 nan nan nan nan nan nan nan nan nan nan nan nan 9.2 9.9 10.1 10.4 10.7 11.3 11.1 11.3 11.5 11.0 11.3 10.6 10.4 9.8 9.6 9.2 8.8 8.9 8.9 8.8 8.7
10.4 3.0 10.5 10.7 10.7 10.6 10.5 10.4 10.3 10.3 10.3 10.2 nan nan nan nan nan nan nan nan 9.2 nan 9.4 9.7 10.0 10.1 10.8 11.1 11.4 11.7 11.7 11.6 11.5 11.0 10.8 10.0 9.6 9.3 9.2 9.0 8.9 8.5 8.5
10.5 10.6 10.5 10.5 10.4 10.3 10.3 10.6 10.5 10.6 10.6 10.3 10.2 10.0 6.2 nan nan nan nan 9.3 9.4 9.7 9.7 9.8 10.2 10.5 11.0 10.7 10.8 10.6 11.0 11.0 11.0 10.5 10.3 9.9 9.6 9.3 9.1 9.0 9.0 7.0 7.3
10.6 4.2 8.2 10.5 10.9 11.0 11.2 11.1 11.3 11.1 11.1 10.6 10.4 10.3 9.9 8.9 9.5 9.4 9.5 9.2 9.3 9.6 9.8 9.8 10.0 9.9 9.9 10.0 10.0 10.1 10.2 10.2 10.4 10.3 10.4 10.1 9.7 9.2 9.7 8.8 8.7 9.2 8.6
10.9 11.2 3.0 11.5 10.9 10.8 10.7 11.2 11.6 10.9 10.9 10.5 10.6 10.3 nan 10.1 9.8 9.7 9.6 9.8 9.7 9.6 9.8 9.7 10.0 9.6 9.5 9.3 9.6 9.7 9.9 10.6 10.2 10.1 10.0 9.9 9.7 9.3 9.3 9.7 8.8 8.5 8.6
11.3 11.1 11.1 11.0 11.8 11.8 11.2 11.9 11.6 11.5 11.5 11.7 11.9 10.8 nan 10.7 10.5 10.3 10.3 9.9 9.7 9.8 9.8 9.6 9.7 9.5 9.7 9.8 10.0 9.9 10.3 9.9 9.7 9.9 10.5 10.5 10.1 9.9 9.3 9.4 9.1 9.2 8.5
11.8 12.5 12.2 12.1 12.1 4.5 11.7 11.1 11.4 11.3 11.4 10.9 10.8 11.1 11.1 10.4 10.5 10.7 10.1 10.1 10.6 10.8 10.6 10.4 10.5 10.6 10.5 10.2 10.4 10.3 10.4 10.3 10.2 9.6 10.6 10.5 10.6 10.0 9.6 9.5 9.2 9.0 8.6
12.2 11.9 11.8 11.0 11.3 11.9 11.3 11.2 11.6 4.1 11.2 10.9 10.5 10.4 11.1 10.8 10.5 11.4 11.2 10.8 11.0 10.0 10.5 10.3 10.8 10.8 10.4 9.7 9.2 9.3 9.1 9.1 9.3 9.5 9.7 10.7 10.9 10.0 10.6 9.6 9.5 8.7 9.4
11.5 11.9 11.6 11.7 10.7 11.2 11.4 10.9 11.6 10.9 10.8 11.1 10.4 11.2 11.5 11.9 11.6 10.5 10.6 10.8 10.5 10.5 10.8 10.8 10.6 10.5 10.4 10.3 9.8 9.5 8.8 3.0 8.2 3.0 9.9 10.8 10.7 10.8 10.8 10.3 10.1 10.2 9.7
11.7 11.6 11.6 11.5 11.5 11.2 10.9 11.0 10.8 11.2 10.8 10.7 11.0 11.0 11.3 11.3 11.1 10.5 10.6 10.6 11.0 10.9 10.6 10.4 10.3 10.4 10.5 10.5 10.4 4.2 3.0 3.0 9.3 3.0 10.2 10.9 10.9 11.6 11.7 11.5 11.5 10.8 10.7